{"data":{"norad_id":49107,"epoch":"2026-05-25T00:30:40.726080Z","epoch_age_seconds":69222,"freshness":"FRESH","line1":"1 49107U 21075AJ  26145.02130470  .00000002  00000+0 -27964-4 0  9995","line2":"2 49107  87.9155  10.4759 0001858  89.3787 270.7558 13.17650491230532","mean_motion":13.17650491,"eccentricity":0.0001858,"inclination_deg":87.9155,"raan_deg":10.4759,"arg_perigee_deg":89.3787,"mean_anomaly_deg":270.7558,"bstar":-2.7964e-5,"rev_number":23053,"period_min":109.28542962156,"perigee_km":1192.300699146,"apogee_km":1195.11439658,"semimajor_km":7571.844547863,"source":"CELESTRAK","updated_at":"2026-05-25T13:38:22.488028Z"}}